Flag for Canada Weather past 2 weeks in Montreal, Quebec, Canada

Now
63 °F

Scattered clouds.


Feels Like: 63 °F
Forecast: 60 / 70 °F
Wind: 9 mph from Southwest

Location: Montreal - Pierre Elliot Trudeau International Aiport

Current Time: Aug 5, 2015 at 7:35:03 AM

Latest Report: Aug 5, 2015 at 7:00 AM


Visibility: 15 mi

Pressure: 29.83 "Hg

Humidity: 88%

Dew point: 59 °F

Location of MontrealLocation

Historic Weather in Montreal — Graph

°F

Montreal temperature yesterday

Maximum temperature yesterday: 79 °F (at 3:00 PM)
Minimum temperature yesterday: 64 °F (at 4:00 AM)
Average temperature yesterday: 71 °F

Past Weeks' High & Low Weather Summary

 TemperatureHumidityPressure
High90 °F (Jul 29, 4:00 PM)100% (Jul 22, 2:00 AM)30.01 "Hg (Jul 22, 2:00 AM)
Low59 °F (Jul 22, 2:00 AM)44% (Aug 4, 5:00 PM)29.51 "Hg (Jul 21, 3:00 PM)
Average71 °F73%29.80 "Hg
* Reported Jul 21 6:00 AM — Aug 5 6:00 AM, Montreal, Weather by CustomWeather, © 2015

Note: Actual official high and low records may vary slightly from our data, if they occured in-between our weather recording intervals... More about our weather records

Advertising

Montreal weather history for previous 24 hours

 ConditionsComfort  
Time TempWeatherWind HumidityBarometerVisibility
6:00 AM
Wed, Aug 5
61 °FPassing clouds.9 mph94%29.82 "Hg15 mi
5:00 AM63 °FPassing clouds.12 mph88%29.82 "Hg15 mi
4:00 AM63 °FPassing clouds.9 mph88%29.82 "Hg15 mi
3:00 AM63 °FPassing clouds.8 mph94%29.83 "Hg15 mi
2:53 AM63 °FPassing clouds.6 mph94%29.82 "Hg15 mi
2:00 AM64 °FMostly cloudy.7 mph88%29.83 "Hg15 mi
1:00 AM64 °FMostly cloudy.9 mph88%29.83 "Hg15 mi
12:00 AM66 °FSprinkles. Mostly cloudy.12 mph83%29.83 "Hg15 mi
11:51 PM
Tue, Aug 4
66 °FSprinkles. Overcast.9 mph83%29.83 "Hg15 mi
11:00 PM66 °FPassing clouds.8 mph83%29.83 "Hg15 mi
10:00 PM66 °FStrong thunderstorms. Mostly cloudy.15 mph78%29.84 "Hg5 mi
9:00 PM70 °FPassing clouds.5 mph60%29.81 "Hg15 mi
8:00 PM73 °FPassing clouds.9 mph53%29.80 "Hg30 mi
7:00 PM75 °FScattered clouds.16 mph47%29.78 "Hg30 mi
6:00 PM75 °FBroken clouds.16 mph47%29.78 "Hg30 mi
5:00 PM77 °FScattered clouds.20 mph44%29.77 "Hg30 mi
4:00 PM77 °FPartly sunny.21 mph47%29.77 "Hg30 mi
3:00 PM79 °FBroken clouds.20 mph48%29.77 "Hg30 mi
2:00 PM77 °FPartly sunny.22 mph47%29.77 "Hg15 mi
1:00 PM75 °FBroken clouds.20 mph54%29.78 "Hg15 mi
12:00 PM75 °FBroken clouds.14 mph57%29.78 "Hg30 mi
11:00 AM73 °FScattered clouds.15 mph57%29.79 "Hg30 mi
10:00 AM72 °FPassing clouds.13 mph61%29.78 "Hg30 mi
9:00 AM70 °FPartly sunny.13 mph69%29.78 "Hg30 mi
8:00 AM70 °FPassing clouds.13 mph69%29.78 "Hg30 mi
7:00 AM66 °FScattered clouds.8 mph78%29.78 "Hg30 mi
Weather by CustomWeather, © 2015

See weather overviewHow to use our weather pages